Location: Ellington
(52.3167°N, 0.2833°W)
Time: 04:53:50
(UTC+00:00)

Daily predictions for brighter satellites

Satellite Brightness Start Highest point End
(mag) Time Altitude Azimuth Time Altitude Azimuth Time Altitude Azimuth
SL-16 R/B 4.4 03:19:10 21° ENE 03:19:10 21° ENE 03:21:52 10° E
Cosmos 2082 Rocket 4.3 03:23:08 21° E 03:23:08 21° E 03:26:25 10° NE
USA 234 4.2 03:24:31 10° ENE 03:28:36 42° ENE 03:28:36 42° ENE
NOSS 3-1 (C) 4.1 03:52:30 68° E 03:52:30 68° E 04:00:05 10° SE
COSMOS 2455 4.1 04:07:00 33° SE 04:07:00 33° SE 04:10:08 10° SE
Cosmos 2360 Rocket 3.7 04:09:27 29° NNE 04:10:11 30° NE 04:15:06 10° ESE
Cosmos 2333 Rocket 3.3 04:11:00 39° NE 04:11:22 40° NE 04:16:45 10° ESE
ATLAS 3B R/B 3.9 04:14:24 35° N 04:15:31 37° N 04:22:39 10° ENE
ACS3 Solar Sail 3.9 04:11:50 10° N 04:12:40 14° N 04:12:40 14° N
NOSS 3-4 (A) 4.2 04:23:03 39° NNE 04:23:03 39° NNE 04:27:19 10° NE
NOSS 3-4 (C) 4.2 04:23:13 39° NNE 04:23:13 39° NNE 04:27:29 10° NE
Cosmos 2219 Rocket 3.9 04:25:49 23° N 04:27:35 27° NE 04:32:20 10° E
ADEOS Rocket 4.3 04:22:23 10° N 04:27:21 38° NNW 04:27:21 38° NNW
COSMO-SKYMED 1 4.1 04:29:10 10° SE 04:32:40 32° ENE 04:32:40 32° ENE
Cosmos 2322 Rocket 3.2 04:32:25 36° NNE 04:33:52 42° NE 04:39:14 10° ESE
Cosmos 1937 Rocket 4.0 04:49:25 49° SSE 04:49:25 49° SSE 04:53:09 10° SSE
Cosmos 858 Rocket 4.5 04:49:23 79° E 04:49:23 79° E 04:54:29 10° SSE
USA 59 Rocket 2.2 04:54:18 16° S 04:54:18 16° S 04:55:32 10° SSE
Cosmos 2237 4.5 04:53:25 54° SSW 04:53:25 54° SSW 04:58:00 10° SSE
Aureole 1 Rocket 4.5 04:53:28 51° SW 04:53:28 51° SW 04:59:49 10° S
Cosmos 1833 Rocket 4.1 04:55:09 25° N 04:55:09 25° N 04:58:03 10° NNE
Meteor 2-3 Rocket 4.4 04:49:19 10° S 04:54:53 55° E 05:00:25 10° NNE
Cosmos 2058 Rocket 4.1 04:54:40 28° NNE 04:56:32 44° ENE 05:00:45 10° SE
NOSS 3-1 (A) 3.9 04:57:15 47° NW 04:59:40 85° NE 05:08:18 10° SE
COSMOS 2406 3.6 04:55:16 13° SSW 05:00:11 61° ESE 05:05:48 10° NE
SKYMED 2 3.9 04:56:44 10° SSE 05:00:15 58° SSE 05:00:15 58° SSE
SL-16 R/B 2.1 05:01:02 63° NNW 05:02:01 89° WSW 05:07:41 10° SSE
Cosmos 2082 Rocket 2.0 05:05:02 67° WSW 05:05:40 76° WNW 05:11:19 10° NNE
CZ-4 R/B 4.4 05:02:02 10° NNE 05:06:37 54° ESE 05:11:07 10° S
ATLAS 5 CENTAUR R/B 3.5 05:10:38 14° NNE 05:10:38 14° NNE 05:11:27 10° NNE
SeaSat 1 3.6 05:04:36 10° NNE 05:07:30 30° N 05:07:30 30° N
Okean 1 4.1 05:11:24 40° NE 05:11:55 43° ENE 05:15:19 10° SSE
USA 234 3.4 05:07:26 10° ENE 05:13:53 60° N 05:15:57 42° WNW
CZ-2C R/B 4.0 05:11:11 10° N 05:13:16 23° N 05:13:16 23° N
NOAA 12 4.3 05:11:40 10° NNE 05:16:59 71° ESE 05:22:14 10° S
Helios 1A Rocket 3.5 05:13:41 10° SSE 05:15:55 39° SE 05:15:55 39° SE
Cosmos 2285 Rocket 4.4 05:17:03 18° NNW 05:21:55 64° ENE 05:28:17 10° SE
BREEZE-M DEB (TANK) 3.4 05:23:26 43° SE 05:23:26 43° SE 05:26:54 10° E
BREEZE-M DEB (TANK) 3.4 05:24:36 30° S 05:24:47 30° S 05:29:15 10° ESE
Cosmos 2278 3.6 05:24:16 44° NW 05:26:04 71° WSW 05:31:41 10° SSE
SL-4 R/B 2.1 05:28:33 48° SE 05:28:33 48° SE 05:31:06 10° ESE
FengYun 1-2 T 4.2 05:23:52 10° NNE 05:29:29 66° WNW 05:35:04 10° SSW
Celestis-02/Orion 38 4.5 05:25:58 10° NNE 05:30:59 63° NW 05:32:54 37° WSW
Cosmos 2221 4.2 05:30:26 10° N 05:34:09 30° ENE 05:37:49 10° SE
Cosmos 2026 Rocket 3.9 05:28:45 10° S 05:34:49 89° E 05:40:59 10° N
SL-16 R/B 4.4 05:38:16 10° NNW 05:40:52 13° NNE 05:43:27 10° NE
NOSS 3-1 (C) 4.5 05:39:51 32° W 05:42:21 40° WSW 05:50:17 10° S
SJ-11-01 4.4 05:38:05 10° N 05:42:37 48° WNW 05:45:29 21° SW
Cosmos 841 Rocket 3.5 05:40:31 25° SW 05:43:23 56° WNW 05:48:35 10° NNE
Cosmos 405 Rocket 4.1 05:40:40 10° SSE 05:43:38 33° E 05:46:38 10° NNE
COSMOS 2455 4.2 05:50:11 20° WSW 05:50:11 20° WSW 05:53:36 10° SSW
Cosmos 2360 Rocket 2.1 05:51:12 24° NW 05:54:41 71° WSW 06:00:16 10° SSE
Cosmos 2333 Rocket 2.4 05:53:02 28° NW 05:55:52 51° WSW 06:01:23 10° S
Cosmos 1553 Rocket 4.0 05:50:17 10° N 05:56:42 90° N 06:03:08 10° S
Cosmos 1626 Rocket 4.1 05:52:35 10° S 05:56:56 62° E 06:01:17 10° NNE
Cosmos 1892 Rocket 3.8 05:57:26 10° SSW 06:01:39 45° WNW 06:05:55 10° N
Cosmos 1092 Rocket 3.9 05:55:29 10° SSW 06:01:44 70° WNW 06:07:58 10° N
Meteor 2-2 Rocket 4.3 05:56:52 10° NNW 06:02:25 56° W 06:08:02 10° S
Cosmos-2242 3.1 06:00:27 26° NNW 06:02:30 48° W 06:06:32 10° SSW
Nadezhda 4 Rocket 4.4 05:58:53 10° SW 06:04:41 38° WNW 06:10:29 10° N
Cosmos 2237 Rocket 3.9 06:00:21 10° NNW 06:04:58 25° NE 06:09:35 10° E
Cosmos 220 Rocket 4.5 06:05:34 32° WNW 06:06:05 33° NW 06:09:53 10° N
Cosmos 1125 Rocket 3.8 06:01:41 12° NNW 06:06:39 66° ENE 06:11:51 10° SE
ATLAS 3B R/B 3.4 06:01:38 17° NW 06:07:49 59° NNE 06:15:21 10° ESE
COSMO-SKYMED 1 3.1 06:04:24 10° SSW 06:08:07 32° W 06:08:59 29° WNW
Cosmos 2219 Rocket 2.1 06:07:32 16° NNW 06:12:12 83° WSW 06:17:50 10° SSE
IRS-1D 3.8 06:07:31 10° N 06:12:12 41° WNW 06:16:55 10° SW
NOSS 3-4 (A) 4.5 06:10:28 20° NW 06:13:25 30° N 06:19:13 10° NE
NOSS 3-4 (C) 4.4 06:10:38 20° NW 06:13:34 30° N 06:19:22 10° NE
Cosmos 2322 Rocket 2.5 06:14:14 19° NW 06:17:59 45° WSW 06:23:20 10° S
BREEZE-M DEB (TANK) 4.4 05:58:50 10° WSW 06:19:41 74° S 06:24:28 10° E
Meteor 2-6 Rocket 4.3 06:18:38 10° NNW 06:24:32 65° W 06:30:24 10° S
Cosmos 1812 Rocket 3.5 06:22:07 10° N 06:26:27 88° W 06:30:48 10° S
IGS 5A 3.3 06:22:57 10° N 06:26:57 68° WNW 06:30:55 10° SSW
Cosmos 2322 4.1 06:21:37 10° NNW 06:27:16 62° NE 06:32:52 10° SE
Cosmos 1484 Rocket 2.5 06:24:52 10° N 06:28:12 49° WNW 06:31:29 10° SSW
Cosmos 1437 Rocket 2.4 06:29:09 10° NNW 06:32:38 87° E 06:36:06 10° SSE
Cosmos 192 4.3 06:28:02 11° NNW 06:32:46 71° WSW 06:37:37 10° SSE
Cosmos 2266 Rocket 4.3 06:26:51 10° S 06:33:12 72° E 06:39:29 10° NNE
Cosmos 2058 Rocket 4.1 06:31:52 16° NW 06:34:09 24° W 06:37:42 10° SW
Cosmos 1417 Rocket 4.4 06:28:27 10° NNW 06:34:37 84° W 06:40:46 10° S
Cosmos 1602 Rocket 3.7 06:30:59 10° S 06:35:25 81° E 06:39:54 10° NNE
ATLAS 2AS CENTAUR R/B 3.7 06:29:18 10° SSW 06:36:04 52° SE 06:42:41 10° NE
Meteor 2-3 Rocket 4.4 06:33:24 10° SW 06:38:24 30° WNW 06:43:22 10° N
Cosmos 1833 Rocket 4.5 06:36:49 12° NW 06:38:49 14° NNW 06:41:34 10° NNE
SL-08 ROCKET BODY 4.3 06:34:03 10° SSW 06:39:51 69° WNW 06:45:43 10° N
ARIANE 5 R/B 3.1 06:35:14 10° NNE 06:40:26 63° ESE 06:45:37 10° S
Cosmos 1743 2.1 06:37:40 10° SSW 06:40:53 69° W 06:44:09 10° N
COSMOS 2406 3.9 06:39:43 10° WSW 06:44:50 34° NW 06:49:59 10° NNE
SL-16 R/B 3.6 06:42:56 14° WNW 06:45:19 18° W 06:49:01 10° SW
SeaSat 1 4.2 06:43:03 10° N 06:45:30 14° NNW 06:47:08 12° NW
COSMOS 2428 2.9 06:43:52 10° NNW 06:49:36 76° ENE 06:55:18 10° SE
Cosmos 2082 Rocket 3.4 06:46:54 12° W 06:50:41 22° NW 06:55:03 10° NNE
ATLAS 5 CENTAUR R/B 3.1 06:50:06 11° NW 06:52:07 15° N 06:54:31 10° NE
Cosmos 2150 Rocket 4.5 06:50:23 10° NNW 06:55:50 66° ENE 07:01:13 10° SE
USA 234 3.4 06:50:04 10° ESE 06:56:37 74° NNE 07:03:11 10° WNW
MOS 1 Rocket 3.7 06:52:52 10° NNE 06:58:18 84° ESE 07:03:37 10° SSW
Cosmos 1814 Rocket 4.2 06:53:42 10° SW 06:58:48 51° WNW 07:04:00 10° NNE
CBERS-1 4.2 06:55:03 10° N 06:59:57 49° WNW 07:04:50 10° SW
Meteor 1-27 Rocket 3.8 06:57:48 10° NNW 07:03:43 87° WSW 07:09:29 10° S
SAR-Lupe-4 3.5 07:00:44 10° N 07:04:18 71° WNW 07:07:50 10° SSW
SL-4 R/B 3.3 07:02:39 10° W 07:05:05 20° SW 07:07:27 10° SSE
CZ-2D R/B 2.8 07:03:23 10° N 07:06:31 53° WNW 07:09:37 10° SSW
Cosmos 2151 3.1 07:04:55 10° SSW 07:08:53 50° WNW 07:12:55 10° N
Cosmos 1825 Rocket 3.6 07:04:37 10° S 07:09:04 89° E 07:13:30 10° N
Cosmos 2221 3.2 07:07:31 10° NNW 07:11:11 31° W 07:14:50 10° SSW
Cosmos 1758 Rocket 4.2 07:07:48 10° SW 07:11:47 32° WNW 07:15:47 10° N
CORIOLIS 4.2 07:07:51 10° N 07:13:08 58° WNW 07:18:25 10° SW
SAR-Lupe-1 4.0 07:10:20 10° N 07:13:56 65° WNW 07:17:30 10° SSW
USA 229 4.1 07:08:05 10° NW 07:15:24 79° SW 07:23:30 10° SE
USA 229 DEB 4.1 07:08:10 10° NW 07:15:29 79° SW 07:23:35 10° SE
Cosmos 405 Rocket 3.7 07:14:53 10° WSW 07:17:18 19° WNW 07:19:44 10° NNW
Cosmos 1238 Rocket 2.3 07:14:49 10° NNW 07:17:34 44° W 07:20:18 10° S
Cosmos 1707 3.2 07:15:18 10° NNW 07:18:03 28° W 07:20:47 10° SSW
Meteor 1-20 Rocket 4.2 07:12:33 10° SSW 07:18:11 70° WNW 07:23:43 10° N
Thor Agena Rocket 3.7 07:13:26 10° N 07:18:19 49° WNW 07:23:09 10° SW
COBE Rocket 4.1 07:13:53 10° SSE 07:18:29 71° ENE 07:23:07 10° N
Cosmos 2315 Rocket 4.2 07:17:19 10° NNW 07:23:34 59° W 07:29:43 10° S
